This is the latest recevied weather packets stored in our database for station/object KB1RMA-4. If no packets are shown the sender has not sent any weather packets the latest 1 day(s).
| Time | Temp. | Humidity | Pressure | Rain* | Wind** | Luminosity | Snow |
|---|---|---|---|---|---|---|---|
| 1777994791 | 25.56° C | 39% | 1009 hPa | 0 mm | 0.89 m/s, 13° | 750 W/m² | - |
| 1777994487 | 25° C | 40% | 1009.2 hPa | 0 mm | 0.45 m/s, 276° | 732 W/m² | - |
| 1777994182 | 24.44° C | 41% | 1009 hPa | 0 mm | 0.89 m/s, 266° | 733 W/m² | - |
| 1777993880 | 24.44° C | 42% | 1009.1 hPa | 0 mm | 0.45 m/s, 253° | 725 W/m² | - |
| 1777993576 | 23.89° C | 43% | 1009.1 hPa | 0 mm | 0.45 m/s, 306° | 722 W/m² | - |
| 1777993273 | 23.33° C | 46% | 1009.2 hPa | 0 mm | 0 m/s | 744 W/m² | - |
| 1777992968 | 22.78° C | 45% | 1009.5 hPa | 0 mm | 0 m/s | 721 W/m² | - |
| 1777992667 | 23.33° C | 44% | 1009.5 hPa | 0 mm | 0.45 m/s, 243° | 265 W/m² | - |
| 1777992364 | 23.33° C | 45% | 1009.6 hPa | 0 mm | 0 m/s | 888 W/m² | - |
| 1777992062 | 22.78° C | 46% | 1009.6 hPa | 0 mm | 1.34 m/s, 262° | 295 W/m² | - |
| 1777991759 | 22.78° C | 48% | 1009.4 hPa | 0 mm | 0.45 m/s, 253° | 817 W/m² | - |
| 1777991456 | 22.78° C | 48% | 1009.4 hPa | 0 mm | 0.45 m/s, 264° | 274 W/m² | - |
| 1777991153 | 22.22° C | 50% | 1009.5 hPa | 0 mm | 0 m/s | 757 W/m² | - |
| 1777990850 | 21.67° C | 52% | 1009.5 hPa | 0 mm | 0 m/s | 783 W/m² | - |
| 1777990548 | 20.56° C | 53% | 1009.3 hPa | 0 mm | 0.45 m/s, 264° | 757 W/m² | - |
| 1777990244 | 20.56° C | 54% | 1009.4 hPa | 0 mm | 0.45 m/s, 279° | 263 W/m² | - |
| 1777989941 | 20.56° C | 54% | 1009.5 hPa | 0 mm | 1.34 m/s, 253° | 824 W/m² | - |
| 1777989638 | 19.44° C | 56% | 1009.6 hPa | 0 mm | 0.45 m/s, 263° | 879 W/m² | - |
| 1777989334 | 18.89° C | 58% | 1009.6 hPa | 0 mm | 0 m/s | 714 W/m² | - |
| 1777989031 | 18.89° C | 57% | 1009.2 hPa | 0 mm | 0 m/s | 142 W/m² | - |
| 1777988727 | 18.89° C | 55% | 1009.2 hPa | 0 mm | 0 m/s | 88 W/m² | - |
| 1777988424 | 19.44° C | 55% | 1009.5 hPa | 0 mm | 0.45 m/s, 264° | 73 W/m² | - |
| 1777988121 | 20° C | 51% | 1009.7 hPa | 0 mm | 0 m/s | 106 W/m² | - |
| 1777987817 | 20.56° C | 49% | 1009.7 hPa | 0 mm | 0 m/s | 117 W/m² | - |
| 1777987514 | 20.56° C | 49% | 1009.4 hPa | 0 mm | 0 m/s | 126 W/m² | - |
* Rain latest hour (hover to see other rain measurements)
** Current wind speed in m/s (hover to see current wind gust speed)